Temperature
20 17 16 17 18 19 20 20 19 21 22 22 22 23 24 25 25 25 24 24 23 23 23 24 24 24 24 23 22 22 21 21 20 20 20 19 19 18 18 18 18 18 17 17
17 17 18 19 19 20 20 19 20 21 22 23 21 22 23 24 24 24 24 23 22 22 23 24 24 24 24 23 22 22 21 21 21 20 20 20 19 18 18 18 18 17 17 17
16 17 19 20 20 20 20 19 20 21 22 22 22 22 22 24 23 22 21 21 21 22 22 23 24 24 24 23 23 22 21 21 21 20 20 19 19 18 17 17 17 17 16 16
17 19 20 20 19 20 19 21 21 22 21 19 21 20 21 22 21 19 18 18 18 19 20 22 22 23 23 23 22 22 21 21 21 20 20 19 19 18 17 17 16 16 16 15
18 19 19 19 20 21 20 22 22 22 21 20 20 20 20 21 19 17 16 16 16 17 18 19 20 21 21 22 22 21 21 21 20 20 19 19 18 17 17 16 15 15 15 14
18 20 20 20 22 22 22 22 21 19 18 19 20 21 20 19 19 17 16 15 15 16 16 17 18 19 20 20 20 20 20 20 19 19 18 18 18 17 16 15 15 14 14 14
19 20 21 22 21 22 21 18 17 18 17 18 20 21 18 17 18 16 15 15 14 15 15 16 17 17 18 19 19 19 19 18 18 17 17 17 17 16 15 15 14 14 13 13
18 18 20 21 21 20 20 18 17 18 18 18 20 19 17 16 15 15 14 14 14 14 14 15 15 16 16 17 17 17 17 17 17 16 16 16 16 15 14 14 13 13 12 12
17 18 20 22 22 21 20 18 17 17 19 19 18 17 17 16 15 14 14 13 13 13 13 14 14 14 15 15 16 16 16 16 16 15 15 15 14 14 13 13 12 12 11 11
17 18 19 21 21 21 20 19 16 16 17 18 19 18 17 16 15 14 13 13 12 13 13 13 13 13 14 14 14 15 15 15 15 14 14 13 13 13 12 12 11 11 10 10
16 17 18 18 18 18 19 18 17 15 16 17 17 17 16 16 15 14 13 12 12 12 12 12 12 12 13 13 13 13 13 13 13 13 13 12 12 11 11 11 10 10 9 9
16 15 16 17 18 18 18 17 16 16 16 16 16 15 15 14 14 13 12 11 11 11 12 12 12 12 12 12 12 12 12 12 12 12 11 11 10 10 10 9 9 8 8 8
16 15 15 16 16 17 17 17 16 14 14 15 15 15 14 13 13 12 11 11 11 11 11 11 11 11 11 11 11 11 11 11 10 10 10 10 9 9 8 8 8 8 7 7
16 14 15 15 15 16 17 17 16 14 13 14 14 14 13 13 12 11 11 10 10 10 10 10 10 10 10 10 10 9 9 9 9 9 9 9 8 8 8 7 7 7 7 7
14 15 16 16 17 17 16 16 16 15 15 14 14 14 13 12 11 11 10 10 10 9 9 9 9 9 9 9 9 9 8 8 8 8 8 8 7 7 7 7 6 6 6 6
13 14 15 15 16 16 15 15 15 15 15 14 14 12 11 11 11 10 9 9 9 9 9 9 9 9 8 8 8 8 8 8 8 7 7 7 7 6 6 6 6 5 5 5
13 13 14 14 16 15 13 13 14 14 14 14 13 12 11 10 10 9 9 8 8 8 8 8 8 8 8 8 8 8 7 7 7 7 6 6 6 6 5 5 5 5 4 4
14 13 11 13 14 12 13 14 14 13 12 12 11 10 9 9 8 8 8 8 8 8 7 7 7 7 7 7 7 7 7 6 6 6 6 5 5 5 5 4 4 4 4 3
13 13 12 12 13 13 14 14 14 12 11 11 10 9 8 8 8 7 7 8 7 7 7 7 7 7 7 6 6 6 6 6 5 5 5 5 5 4 4 4 4 3 3 3
14 12 12 12 12 12 12 14 14 12 11 10 10 9 9 9 8 7 7 7 7 7 7 7 6 6 6 6 6 6 5 5 5 5 4 4 4 4 4 3 3 3 3 3
13 12 12 11 11 12 13 14 13 12 10 10 10 9 9 8 7 7 7 7 6 6 6 6 6 6 6 6 5 5 5 5 4 4 4 4 4 4 3 3 3 3 3 3
12 12 11 10 10 11 12 12 11 10 10 10 10 9 9 7 7 6 6 6 6 6 6 6 6 5 5 5 5 5 4 4 4 4 4 4 4 3 3 3 3 3 3 3
12 11 10 10 10 11 12 12 12 12 11 10 9 9 8 7 6 6 6 6 6 6 6 5 5 5 5 5 5 5 4 4 4 4 4 4 4 3 3 3 3 3 3 3
14 12 10 9 10 11 12 12 12 12 11 10 9 8 8 7 6 6 6 6 6 6 5 5 5 5 5 5 5 4 4 4 4 4 4 4 4 4 3 3 3 3 3 3
13 12 10 9 10 11 11 11 11 11 10 9 8 8 8 7 6 6 6 6 6 5 5 5 5 5 5 5 5 5 4 4 4 4 4 4 4 4 4 3 3 3 3 3
11 11 9 9 11 10 10 11 11 10 10 9 8 7 7 7 6 6 6 6 6 5 5 5 5 5 5 5 5 5 5 4 4 4 4 4 4 4 4 4 3 3 3 2
Wind_Speed
3 3 4 7 7 7 5 6 9 10 9 6 11 16 16 12 8 8 9 11 13 12 11 11 11 10 7 6 8 11 13 14 13 10 9 7 6 5 5 4 7 9 10 11
2 5 10 8 7 7 8 9 11 12 10 7 11 16 13 9 6 6 8 12 14 12 9 10 8 8 12 11 10 9 11 13 13 11 8 5 6 6 5 5 8 10 10 10
7 9 9 8 8 8 10 9 10 10 11 8 5 9 9 2 5 8 7 8 10 12 12 10 9 8 9 10 11 11 11 11 11 11 10 9 7 6 4 6 5 7 10 10
8 10 8 9 11 10 10 10 9 7 5 6 3 4 7 2 7 10 10 10 10 9 8 7 7 7 7 8 10 10 10 10 11 13 13 14 9 7 6 6 6 7 10 11
8 7 8 10 13 11 10 9 5 4 2 4 4 1 7 3 6 8 10 12 11 9 9 8 5 4 3 5 8 10 9 9 10 10 12 11 9 8 9 10 10 8 8 10
10 8 7 11 12 10 8 2 4 4 4 2 4 1 5 4 3 9 10 12 12 11 10 10 9 8 7 6 7 9 10 8 8 10 9 10 13 13 13 12 10 8 7 7
8 9 8 7 6 4 3 5 4 4 3 5 5 3 2 7 9 13 13 12 12 11 11 11 12 11 10 10 9 9 11 10 9 10 10 11 12 12 13 12 11 9 7 7
4 7 6 5 7 6 4 9 7 4 3 4 3 2 4 11 14 15 14 13 12 12 11 12 12 12 12 12 11 11 13 12 11 12 12 11 12 10 9 11 10 9 8 8
2 6 6 5 5 8 5 5 9 6 1 1 2 4 5 10 13 14 13 12 12 11 12 12 12 13 13 13 13 13 14 14 13 13 13 13 13 13 12 12 11 9 9 9
1 5 7 4 3 2 7 7 6 5 4 3 3 2 4 10 12 12 11 11 11 10 11 12 12 13 13 13 14 15 15 15 14 13 13 13 13 13 13 12 12 11 10 9
2 1 6 5 5 2 3 3 4 4 5 5 2 2 4 9 12 13 12 11 10 10 11 11 11 12 13 13 14 15 15 16 15 14 14 14 13 13 13 12 12 11 10 9
2 3 2 1 2 4 7 3 4 4 2 2 3 1 8 12 13 13 12 11 10 10 10 11 12 12 13 14 14 14 14 15 14 14 15 15 14 13 13 12 12 11 11 9
2 4 3 6 7 8 6 5 3 4 4 2 2 2 6 12 12 12 12 11 10 11 11 12 13 13 13 13 14 15 15 15 14 14 15 15 14 14 13 12 12 11 11 11
4 4 4 3 4 1 3 6 5 5 4 2 2 5 7 10 11 10 10 11 11 11 12 12 13 13 13 14 14 15 14 14 14 15 15 14 13 13 12 11 11 11 11 12
5 4 2 0 1 6 9 9 8 6 3 4 6 7 6 8 9 9 10 11 11 11 12 13 13 13 14 14 14 14 14 13 13 14 14 13 12 12 11 11 11 11 11 12
5 4 3 3 5 12 13 11 9 7 5 7 10 8 6 8 8 9 11 12 12 11 11 13 13 14 14 13 13 13 13 12 12 12 11 10 11 11 11 10 10 10 10 10
3 4 4 2 2 6 9 8 6 5 4 3 5 6 9 9 10 8 9 10 11 11 11 12 11 11 11 11 11 11 11 10 11 10 10 9 9 9 9 9 9 9 8 8
3 3 3 2 6 6 1 1 6 7 8 9 11 10 10 12 10 9 8 11 11 11 11 10 9 9 9 9 9 10 10 9 9 9 8 7 8 8 7 8 8 7 6 6
4 5 4 4 4 4 2 1 1 4 5 6 11 12 12 13 12 9 8 10 10 9 9 8 7 8 8 8 8 9 8 8 8 7 7 6 7 7 7 6 5 4 4 4
7 7 5 4 4 2 3 6 2 8 4 3 8 11 10 6 5 4 6 9 9 8 7 7 7 7 8 6 7 8 7 7 7 6 6 6 6 6 6 5 3 2 2 2
5 6 5 4 4 1 4 7 3 4 4 4 6 8 6 3 5 8 8 8 8 8 7 7 7 7 6 6 7 7 7 6 5 5 5 5 5 5 5 3 2 2 2 1
4 3 3 3 3 3 6 4 4 4 4 6 6 6 9 12 12 10 9 8 8 8 7 7 7 7 5 6 6 7 5 4 4 5 5 5 4 3 3 3 1 2 2 2
3 5 5 4 4 4 2 5 5 6 7 6 7 10 14 13 11 10 8 7 7 7 6 6 7 6 5 4 6 6 3 3 4 4 4 3 2 2 2 2 1 2 3 3
1 5 6 5 3 4 5 6 5 6 7 8 11 12 11 11 10 9 8 7 6 6 6 6 6 6 3 3 3 3 2 3 4 2 1 1 2 1 0 1 2 2 2 3
0 4 5 5 4 5 4 5 6 8 11 12 11 10 10 11 10 9 8 7 6 5 5 5 5 4 3 2 2 3 3 3 3 2 2 2 3 2 1 1 1 2 2 4
2 4 7 6 7 6 4 4 7 9 10 12 13 10 10 10 9 9 7 6 6 6 5 5 4 4 3 3 2 2 3 4 4 3 3 3 2 2 3 3 3 5 3 5
Wind_Direction
225 127 221 231 210 211 249 278 286 281 283 280 256 255 254 247 249 232 200 182 168 164 166 157 163 168 160 169 180 179 174 169 164 160 152 142 134 121 109 101 115 122 123 124
8 243 231 232 246 252 265 278 283 292 293 287 263 256 248 235 225 207 180 158 151 149 147 151 154 159 162 175 184 186 181 173 172 164 152 134 124 109 98 91 86 98 108 113
214 242 234 235 250 251 258 246 258 273 304 316 280 273 257 250 88 73 80 107 118 136 146 153 159 161 167 179 178 183 184 175 166 148 132 120 106 101 102 99 91 85 97 101
243 249 244 236 242 231 254 245 243 270 306 301 8 271 277 164 83 76 66 72 83 86 100 123 142 159 174 180 176 176 179 167 162 154 152 152 156 148 136 123 108 93 90 93
242 236 224 234 238 223 231 246 245 259 267 312 346 175 290 33 90 88 77 72 68 72 80 85 91 125 142 153 161 162 154 157 158 153 153 150 142 127 124 119 112 100 87 87
249 255 221 226 237 225 227 278 2 40 75 324 263 145 302 351 126 117 91 75 65 63 64 65 59 59 61 85 119 128 124 128 138 135 134 139 138 135 133 128 122 111 100 90
282 275 252 229 238 253 144 96 33 3 26 248 252 146 307 22 71 104 98 78 62 54 52 54 56 58 59 68 86 104 114 111 113 118 121 125 129 132 134 131 125 119 110 103
268 283 260 222 191 191 171 137 155 183 212 285 335 115 67 72 77 83 82 76 67 56 51 53 53 56 58 62 72 87 97 100 102 106 109 110 112 113 115 117 120 117 114 110
263 271 284 252 195 156 148 169 171 143 221 310 302 117 117 104 93 88 84 78 70 61 56 55 55 56 59 62 66 77 86 86 88 94 98 100 102 107 111 110 108 108 109 108
199 288 304 300 45 63 160 153 100 122 159 240 287 168 185 154 125 107 94 85 76 69 63 59 59 59 60 64 68 71 77 81 82 86 92 97 98 102 106 107 107 105 101 99
42 8 343 30 33 326 54 74 103 137 159 163 237 304 340 149 130 117 105 94 84 75 70 67 66 65 65 66 68 72 76 80 82 85 89 92 93 97 99 100 100 100 97 94
4 94 32 1 328 48 85 83 109 135 248 170 154 19 35 102 109 111 105 96 88 83 80 76 73 72 71 71 72 73 76 79 82 86 88 89 90 91 91 91 91 91 90 87
69 81 46 360 355 11 47 32 68 122 109 90 119 99 72 95 98 102 103 98 91 86 82 79 77 75 75 75 75 76 77 81 84 86 88 88 87 88 89 89 88 87 86 84
97 76 129 169 231 293 37 38 45 86 106 99 95 112 102 100 101 100 101 102 98 90 87 86 86 83 81 80 80 80 79 80 84 86 86 86 85 86 85 84 81 80 82 85
77 62 20 351 79 71 55 50 50 60 100 125 111 106 109 108 109 108 104 99 93 92 91 90 90 90 88 86 85 84 83 81 83 85 86 87 87 85 82 79 78 78 81 87
60 66 45 44 87 81 61 46 53 51 51 105 108 95 94 95 95 98 102 105 100 94 93 93 92 91 90 90 90 89 88 86 86 87 86 85 85 85 83 81 81 82 84 89
42 74 67 26 105 76 43 21 45 46 22 94 105 115 116 96 85 92 102 103 101 99 93 89 87 88 89 88 91 91 89 89 88 88 88 87 87 85 85 89 84 84 87 93
107 78 89 61 58 72 144 100 84 74 54 81 103 110 103 98 85 73 86 101 99 96 92 88 86 85 84 84 86 88 88 89 90 90 89 88 88 87 86 84 83 84 90 100
102 107 80 79 83 103 82 23 179 117 70 90 114 118 115 113 92 69 67 87 95 96 96 94 92 92 90 88 92 94 90 90 90 90 90 90 91 90 86 84 83 84 92 101
50 69 84 83 101 126 301 327 118 109 102 130 135 143 151 146 114 120 101 96 96 95 96 96 93 93 94 92 95 97 94 92 91 93 94 94 93 97 97 97 89 82 101 122
30 35 56 72 90 77 314 331 61 126 186 167 146 149 148 119 128 128 117 103 101 100 98 95 92 91 95 95 94 93 91 92 97 95 93 89 95 104 105 95 81 89 95 72
109 86 63 82 97 249 308 21 94 159 136 119 117 118 114 112 112 113 111 109 106 102 96 93 92 87 82 87 93 94 94 93 88 87 89 100 115 126 120 110 78 68 73 50
103 159 145 137 184 225 21 99 121 124 116 116 116 120 124 122 122 119 115 112 107 103 98 95 100 94 82 86 102 105 113 101 94 93 99 115 130 135 140 143 127 62 66 77
34 110 95 86 107 111 93 96 101 108 113 120 126 127 126 125 126 122 119 115 110 107 108 110 108 106 101 107 115 138 156 131 115 104 126 176 183 217 79 84 123 125 120 107
292 90 94 104 138 105 90 114 117 111 114 119 123 124 128 127 126 125 123 121 118 116 117 119 122 127 143 156 167 186 174 146 149 185 233 247 233 216 185 71 76 133 171 167
341 136 140 181 191 154 160 138 126 126 130 132 129 123 125 127 125 122 120 120 120 120 118 119 126 134 147 152 172 193 171 159 163 196 238 252 246 218 181 142 80 56 92 122
Height
1485 1492 1497 1494 1493 1494 1493 1496 1498 1491 1481 1482 1482 1475 1467 1466 1468 1469 1470 1472 1476 1480 1484 1488 1493 1497 1503 1508 1512 1513 1516 1518 1522 1525 1528 1531 1534 1537 1539 1542 1544 1546 1548 1549
1491 1493 1488 1486 1487 1488 1491 1496 1495 1487 1478 1478 1478 1471 1462 1463 1465 1466 1467 1469 1472 1477 1480 1484 1488 1492 1497 1502 1507 1511 1514 1515 1518 1520 1523 1527 1531 1533 1536 1539 1542 1544 1546 1547
1493 1488 1482 1485 1487 1489 1490 1494 1493 1489 1479 1474 1476 1475 1466 1463 1466 1467 1468 1470 1471 1472 1476 1481 1485 1487 1492 1496 1500 1505 1509 1513 1515 1518 1521 1525 1528 1530 1533 1535 1538 1540 1542 1544
1487 1481 1481 1484 1486 1486 1492 1482 1482 1483 1489 1493 1484 1496 1474 1467 1470 1473 1473 1473 1474 1476 1478 1479 1482 1485 1488 1491 1495 1499 1505 1509 1512 1514 1517 1520 1523 1525 1527 1531 1534 1536 1539 1541
1483 1477 1479 1482 1479 1479 1482 1475 1477 1479 1485 1491 1487 1494 1485 1471 1477 1480 1480 1480 1480 1480 1479 1480 1481 1483 1485 1488 1492 1497 1502 1506 1508 1511 1515 1518 1521 1523 1525 1527 1531 1533 1536 1538
1477 1471 1473 1472 1469 1470 1471 1474 1478 1484 1493 1504 1490 1491 1492 1482 1478 1482 1485 1486 1486 1485 1484 1482 1482 1483 1485 1487 1491 1496 1499 1503 1506 1510 1513 1516 1518 1520 1522 1525 1528 1531 1534 1536
1478 1470 1466 1465 1469 1468 1471 1489 1505 1505 1512 1508 1487 1488 1495 1484 1480 1483 1487 1490 1491 1490 1489 1487 1485 1486 1487 1489 1491 1495 1498 1501 1505 1508 1511 1513 1516 1519 1521 1523 1527 1529 1532 1534
1486 1482 1465 1461 1465 1471 1473 1485 1507 1513 1513 1505 1487 1494 1495 1490 1489 1491 1493 1495 1495 1495 1494 1492 1491 1490 1491 1492 1493 1495 1498 1501 1504 1507 1510 1513 1516 1518 1520 1522 1525 1528 1531 1533
1485 1480 1461 1457 1456 1463 1472 1481 1484 1497 1496 1503 1498 1495 1494 1492 1494 1496 1498 1499 1500 1500 1499 1498 1497 1496 1496 1496 1497 1498 1500 1502 1505 1508 1510 1512 1515 1517 1520 1522 1525 1528 1531 1533
1478 1480 1466 1459 1458 1461 1465 1471 1488 1499 1508 1511 1498 1496 1498 1493 1495 1498 1501 1503 1504 1504 1504 1503 1502 1502 1501 1501 1501 1501 1502 1504 1507 1509 1511 1513 1516 1518 1520 1523 1525 1528 1531 1534
1476 1482 1476 1470 1474 1474 1472 1477 1484 1495 1499 1508 1509 1506 1491 1490 1494 1499 1503 1505 1506 1507 1508 1508 1507 1507 1506 1506 1505 1505 1506 1508 1509 1511 1513 1515 1517 1520 1522 1524 1527 1530 1533 1536
1477 1483 1487 1481 1475 1470 1475 1481 1487 1499 1500 1499 1506 1510 1495 1494 1497 1501 1505 1507 1509 1510 1510 1510 1510 1510 1510 1510 1509 1510 1510 1511 1512 1514 1515 1517 1520 1522 1524 1527 1530 1533 1535 1538
1477 1486 1496 1493 1489 1481 1481 1482 1484 1491 1499 1503 1508 1511 1502 1501 1503 1505 1507 1510 1511 1512 1512 1512 1512 1513 1514 1514 1514 1514 1515 1515 1517 1518 1519 1521 1524 1526 1529 1531 1534 1536 1538 1540
1475 1487 1494 1499 1496 1489 1487 1485 1485 1491 1503 1505 1505 1506 1507 1507 1508 1509 1510 1512 1513 1514 1513 1514 1514 1515 1516 1517 1518 1519 1519 1521 1522 1523 1524 1526 1528 1531 1533 1535 1537 1539 1541 1542
1478 1489 1487 1486 1484 1486 1489 1490 1490 1493 1495 1501 1504 1505 1509 1509 1511 1512 1513 1515 1516 1516 1516 1517 1517 1517 1518 1520 1522 1523 1524 1526 1527 1528 1529 1531 1533 1535 1537 1538 1539 1541 1542 1543
1482 1489 1489 1491 1487 1490 1495 1496 1495 1496 1497 1500 1502 1510 1512 1512 1513 1514 1515 1517 1519 1520 1520 1519 1520 1521 1522 1524 1526 1527 1528 1530 1532 1533 1534 1535 1537 1537 1539 1540 1542 1543 1544 1545
1487 1491 1496 1500 1492 1494 1508 1506 1503 1503 1501 1500 1505 1512 1513 1515 1516 1518 1519 1520 1521 1523 1524 1523 1524 1524 1525 1527 1528 1530 1531 1533 1535 1536 1537 1539 1540 1540 1541 1543 1544 1544 1545 1546
1488 1493 1501 1503 1502 1516 1514 1505 1504 1505 1506 1505 1507 1512 1514 1517 1520 1521 1522 1522 1523 1525 1527 1528 1529 1529 1530 1531 1532 1533 1535 1537 1538 1539 1540 1542 1542 1543 1544 1545 1545 1545 1546 1546
1484 1491 1501 1508 1511 1513 1509 1506 1505 1508 1513 1512 1513 1516 1518 1520 1522 1526 1526 1526 1528 1529 1530 1531 1532 1533 1534 1535 1536 1537 1538 1539 1541 1542 1543 1544 1545 1546 1547 1547 1547 1547 1547 1547
1488 1492 1502 1508 1513 1520 1515 1506 1503 1507 1516 1515 1515 1517 1519 1521 1525 1530 1530 1530 1531 1533 1534 1534 1535 1536 1537 1538 1539 1540 1541 1542 1544 1545 1546 1547 1548 1548 1548 1548 1549 1549 1549 1549
1499 1502 1507 1512 1517 1516 1509 1504 1504 1514 1518 1515 1516 1517 1519 1522 1525 1529 1531 1533 1534 1535 1536 1537 1538 1539 1540 1541 1542 1543 1544 1546 1547 1548 1549 1549 1550 1550 1550 1550 1550 1550 1550 1549
1504 1509 1511 1516 1522 1523 1509 1506 1510 1514 1513 1515 1517 1519 1521 1523 1527 1530 1533 1535 1537 1538 1539 1540 1541 1542 1543 1544 1545 1546 1547 1549 1550 1550 1551 1551 1552 1552 1552 1552 1552 1551 1551 1549
1502 1506 1510 1515 1520 1513 1510 1509 1511 1512 1514 1516 1518 1520 1522 1525 1529 1532 1535 1537 1539 1540 1542 1543 1544 1545 1546 1547 1548 1549 1550 1551 1552 1552 1553 1553 1553 1553 1553 1553 1552 1552 1551 1549
1500 1500 1507 1513 1514 1513 1513 1513 1514 1515 1516 1518 1520 1522 1525 1527 1531 1534 1537 1539 1541 1543 1544 1546 1547 1548 1549 1550 1551 1552 1553 1553 1554 1554 1554 1554 1554 1554 1554 1553 1552 1552 1551 1549
1500 1502 1509 1513 1514 1514 1515 1515 1516 1517 1518 1520 1523 1525 1528 1530 1533 1536 1539 1542 1544 1545 1547 1549 1550 1551 1552 1553 1553 1554 1554 1554 1554 1554 1554 1554 1554 1554 1553 1553 1552 1551 1550 1549
1501 1503 1508 1512 1510 1512 1515 1515 1516 1518 1519 1522 1524 1528 1531 1533 1536 1539 1542 1544 1546 1548 1550 1551 1552 1553 1554 1555 1555 1555 1555 1555 1555 1554 1554 1554 1553 1553 1552 1552 1551 1550 1549 1548